Tracking 31027 objects as of 19-Jul-2025
HD Live streaming from Space Station
objects crossing your sky now

STARLINK 1056

Track STARLINK 1056 now!
10-day predictions
STARLINK 1056 is classified as:


NORAD ID: 44761
Int'l Code: 2019-074BA
Perigee: 395.9 km
Apogee: 397.6 km
Inclination: 53.0 °
Period: 92.3 minutes
Semi major axis: 6767 km
RCS: Unknown
Launch date: November 11, 2019
Source: United States (US)
Launch site: AIR FORCE EASTERN TEST RANGE (AFETR)
Your satellite tracking list
EKRAN 2 DEB
Track 1 satellite(s)




NASA's NSSDC Master Catalog

Two Line Element Set (TLE):
1 44761U 19074BA  25199.58335648  .00027643  00000-0  34963-3 0  9991
2 44761  53.0472 177.6900 0001217  73.4753 283.5785 15.59332006  5934
Source of the keplerian elements: AFSPC